Theta_e
337 336 338 340 342 340 340 340 341 342 341 340 341 340 340 339 339 339 339 337 336 337 336 336 334 341 343 342 341 341 340 339 337 332 332 334 331 330 334 334 334 337 331 331 332 326 324 322 323 331 333 335 333 335 335 333 334 334 334 335 334 336 343
339 339 339 340 340 340 339 340 339 340 340 337 338 339 338 338 338 339 338 338 336 336 337 336 337 337 343 344 344 341 341 339 337 336 334 332 333 332 331 332 334 332 332 332 330 330 325 321 322 324 327 332 334 333 334 335 335 338 336 335 335 334 338
340 339 340 338 338 339 337 337 337 336 337 336 337 337 337 338 339 337 336 337 337 337 337 338 336 337 341 342 343 341 340 338 337 336 334 335 333 334 334 333 330 332 329 330 332 330 328 327 322 323 325 325 324 330 332 333 333 334 334 336 335 333 333
339 339 337 338 337 337 336 336 336 336 337 336 337 337 339 339 337 338 337 336 338 338 335 336 337 338 341 340 340 339 337 336 338 337 337 336 334 333 334 334 333 329 328 328 329 329 327 325 324 325 327 326 325 326 330 333 333 332 332 334 333 333 334
339 337 338 338 336 335 335 334 336 336 335 335 336 336 339 339 338 337 336 338 336 335 337 336 336 337 338 340 339 338 336 337 337 337 337 334 332 333 332 335 331 333 334 332 332 330 329 326 325 324 324 327 326 327 328 332 332 331 331 332 332 333 334
338 338 335 337 339 337 336 334 334 333 334 334 334 334 336 337 337 337 337 338 335 336 338 338 338 338 338 337 336 335 335 335 336 337 335 334 333 334 335 335 335 335 334 334 334 331 331 330 328 325 324 326 323 324 326 328 327 331 331 330 331 333 333
336 337 337 333 336 338 338 338 337 335 335 335 334 335 336 337 337 337 338 338 337 337 336 336 337 338 338 337 336 337 335 335 338 337 337 336 336 336 336 333 335 334 335 335 332 332 331 329 327 326 324 324 325 324 328 326 328 326 328 330 332 332 332
336 336 337 335 335 337 336 335 335 336 339 336 336 337 338 338 338 338 338 338 338 338 337 337 340 340 338 337 337 334 334 337 337 337 337 336 334 335 335 336 335 334 333 334 332 332 333 332 329 329 327 321 321 324 322 324 325 327 327 330 331 331 331
335 335 336 337 337 335 334 335 335 336 335 340 337 337 339 339 339 338 339 338 337 336 335 337 337 338 338 338 336 336 333 335 335 335 337 335 334 337 335 336 337 333 335 334 334 333 332 333 331 330 329 326 320 317 322 320 323 324 328 326 330 331 330
332 334 333 334 338 333 332 332 332 334 336 338 337 337 337 338 338 339 338 339 338 338 337 336 336 337 338 337 335 334 334 339 337 337 336 337 337 336 335 338 335 335 337 336 335 336 334 335 333 332 330 327 326 321 319 318 321 323 326 328 324 328 330
331 333 334 334 332 337 334 330 333 333 334 335 335 337 337 338 338 338 337 337 337 339 339 337 335 336 336 336 335 335 335 338 338 339 339 335 333 338 337 335 336 335 336 337 335 338 338 336 334 331 331 329 329 324 324 319 320 324 324 328 328 326 329
330 332 333 334 333 331 332 331 331 331 333 335 335 336 337 337 337 337 338 337 338 338 338 338 337 337 335 334 335 333 336 338 338 334 334 334 334 336 335 334 337 336 336 337 339 339 338 336 335 332 331 331 330 329 325 323 321 324 327 325 327 329 328
328 331 332 332 334 332 330 331 331 330 331 333 334 335 337 337 335 336 335 338 336 335 338 338 337 335 334 333 333 334 335 336 333 331 331 332 331 333 336 333 336 335 337 336 336 336 337 336 336 336 333 331 330 333 329 327 323 323 332 328 326 327 329
326 328 331 333 334 333 332 331 331 332 333 331 333 333 336 337 337 334 334 333 335 335 335 336 334 334 330 330 334 334 335 335 332 331 332 330 333 336 334 333 334 335 336 335 335 336 334 334 334 333 333 331 329 331 329 327 323 324 329 331 329 326 328
324 326 327 330 330 330 331 332 333 332 330 332 332 331 334 336 338 335 333 336 334 336 335 333 333 331 331 333 333 333 334 332 331 332 332 331 332 334 336 333 333 334 333 334 334 333 333 332 332 330 331 329 328 329 330 327 324 326 326 328 326 327 326
323 323 324 326 327 328 330 331 332 332 332 333 334 335 334 333 336 336 334 336 335 337 336 335 335 333 333 332 332 333 333 332 330 330 330 330 332 334 335 334 333 334 335 335 336 335 334 332 331 330 329 329 327 329 329 330 326 324 324 324 326 325 326
322 322 322 323 324 326 327 329 331 332 332 333 333 336 336 336 336 336 334 333 334 335 336 337 336 335 335 332 332 332 331 331 330 329 329 329 329 331 332 333 333 335 335 333 334 333 334 333 331 331 330 332 331 329 329 330 325 326 326 322 324 322 325
320 321 320 321 322 324 326 327 328 329 331 332 333 334 335 335 337 335 332 330 332 333 336 335 336 335 334 335 334 333 333 331 330 330 331 330 330 329 332 332 332 334 334 334 332 331 332 332 330 331 330 329 329 330 331 328 329 327 324 321 322 322 323
319 319 319 320 320 321 322 324 325 327 328 329 332 333 333 335 334 334 333 331 333 332 330 331 334 333 334 335 335 334 334 334 332 331 331 331 330 330 331 332 335 334 333 332 331 333 333 332 331 330 329 329 328 329 328 327 327 323 321 320 319 318 320
319 319 319 319 320 319 320 321 323 324 327 328 330 331 333 332 335 334 333 333 332 332 333 334 337 336 336 333 335 334 334 332 331 331 331 330 332 332 332 334 334 333 333 332 333 332 332 333 331 330 331 329 329 327 327 327 326 321 320 318 317 319 317
318 318 318 318 318 318 318 320 321 323 326 328 329 329 330 331 332 333 334 333 333 332 330 331 333 335 336 336 336 335 334 333 330 329 330 331 330 330 334 333 335 334 332 333 332 332 333 332 330 327 326 328 325 327 327 326 327 322 320 319 317 318 318
318 318 317 317 316 316 317 317 318 318 319 322 326 330 331 330 330 330 333 334 332 333 332 332 332 332 334 335 334 333 334 332 331 330 330 332 332 334 333 335 334 333 329 327 317 320 322 324 329 329 330 328 326 330 330 326 325 323 321 320 319 321 318
316 316 316 315 315 316 316 315 315 315 315 317 318 322 326 329 330 329 330 331 331 331 332 332 326 315 315 330 334 332 333 332 332 331 330 330 332 333 334 334 334 328 323 320 315 308 307 311 320 329 331 330 328 329 330 329 325 324 322 319 319 319 318
315 315 314 314 314 314 314 314 313 313 313 314 315 317 319 320 323 328 329 328 328 332 332 331 314 306 308 310 328 334 334 333 330 330 329 329 330 332 333 333 333 329 323 320 315 305 306 305 308 314 313 317 322 333 329 328 325 325 325 322 328 323 319
314 313 313 312 312 312 312 312 311 311 311 311 311 312 313 314 316 318 321 324 327 329 327 307 301 304 303 305 310 331 332 330 328 330 331 330 330 333 332 331 332 333 333 332 329 322 312 304 305 306 307 308 299 296 304 328 328 327 325 324 321 324 323
312 312 312 312 311 311 311 310 309 309 309 310 309 308 308 309 310 313 316 317 320 325 323 296 294 295 296 299 300 312 331 330 328 328 330 330 330 332 331 330 332 333 332 330 330 330 328 319 304 301 304 305 298 299 302 303 303 329 329 326 325 324 324
311 311 311 311 310 309 309 309 309 309 309 309 308 306 306 305 306 307 309 312 315 316 308 296 292 294 295 294 295 300 326 329 328 327 329 330 331 333 334 332 329 332 332 334 333 333 332 329 324 323 326 330 328 314 300 303 304 301 313 327 327 326 327
310 310 310 310 310 309 308 308 308 307 307 306 305 304 304 303 303 303 304 306 309 311 307 293 291 292 294 294 293 297 321 327 328 328 330 331 331 330 332 331 332 331 331 331 333 328 329 330 328 328 328 328 325 318 316 316 317 320 327 328 330 328 326
309 310 310 310 309 308 308 307 306 306 306 305 305 304 304 303 302 301 302 302 303 304 306 294 291 291 293 294 296 315 321 325 326 328 330 329 330 330 330 332 331 328 330 331 319 311 319 331 328 327 325 318 316 311 303 297 295 297 306 317 323 320 314
309 309 309 308 308 308 307 306 306 306 305 304 303 303 302 302 302 301 301 300 299 301 303 297 291 291 291 292 304 318 319 322 325 324 323 329 330 321 318 321 325 329 329 328 310 305 307 311 327 325 320 317 314 312 309 304 297 295 295 295 294 294 295
307 308 308 307 307 307 307 307 306 306 304 303 302 302 303 302 302 301 300 299 299 299 300 298 292 291 292 292 303 318 320 322 323 322 324 329 324 321 312 302 313 328 331 323 298 303 303 319 327 324 321 316 314 311 311 312 312 307 297 297 297 297 298
307 307 307 307 307 306 306 306 307 307 305 304 302 302 302 301 301 300 300 300 300 298 298 298 293 291 292 292 304 317 320 323 322 323 323 322 321 320 315 307 299 302 310 301 293 298 302 314 324 321 320 317 313 312 313 314 314 315 316 315 314 313 310
307 307 306 306 307 307 307 307 307 307 306 304 303 302 301 301 300 299 300 300 299 298 297 297 296 291 292 292 297 311 315 318 316 315 315 313 310 309 308 308 301 292 291 292 293 292 295 300 321 322 321 318 315 313 317 317 318 317 315 313 312 313 313
306 306 307 307 307 307 306 306 306 306 306 305 303 302 301 301 300 300 299 300 299 299 298 296 296 292 291 292 293 302 311 311 311 309 308 305 303 302 302 300 301 293 291 292 293 293 295 297 305 323 322 319 317 314 311 315 315 307 312 311 311 311 311
306 306 306 307 306 305 306 306 305 305 305 304 303 302 302 301 300 299 300 299 299 299 300 298 297 294 291 291 292 293 306 308 307 306 304 302 300 298 297 297 296 293 291 293 293 294 294 296 298 314 311 299 298 302 316 314 313 312 311 310 310 309 308
305 305 304 304 302 302 302 304 304 304 304 303 303 301 301 300 300 299 299 298 298 298 299 299 295 296 293 291 291 292 292 298 297 306 303 301 299 298 298 296 294 292 291 292 292 293 294 295 298 299 294 297 299 299 306 313 311 311 310 309 308 307 306
304 304 304 304 303 302 302 302 302 302 303 302 301 301 300 300 299 298 297 296 297 297 298 298 296 294 295 293 292 291 291 291 293 300 301 300 299 298 297 295 293 291 292 292 292 292 292 293 296 293 295 296 298 301 310 309 307 307 304 304 305 305 304
Wind_Speed
6 6 5 4 4 5 6 8 7 5 6 7 6 6 6 7 8 8 7 8 9 7 7 8 11 10 7 8 8 9 6 6 7 6 6 6 7 9 9 9 10 8 8 8 7 8 5 8 8 7 7 8 7 6 7 7 8 7 6 3 5 5 1
5 5 4 4 4 4 7 6 7 7 6 8 9 8 5 6 6 6 7 8 8 7 5 7 8 12 10 8 7 6 7 8 9 5 5 6 7 7 9 11 8 10 8 8 9 8 7 8 7 9 8 7 6 6 5 6 6 4 5 5 5 5 6
4 4 4 4 4 5 6 6 7 7 6 7 8 7 5 7 6 6 9 9 8 7 6 6 10 12 9 9 7 8 8 8 6 7 7 7 7 7 9 8 10 8 9 7 7 7 6 6 6 9 10 10 8 5 7 8 8 8 6 4 6 6 4
6 6 6 5 4 5 5 6 7 8 7 8 6 6 8 7 7 8 6 7 8 5 7 10 8 10 8 8 8 9 11 10 8 9 8 7 6 7 10 10 9 10 9 8 7 7 6 7 6 8 8 10 9 8 8 7 6 8 8 8 6 5 5
6 7 7 7 6 5 5 5 5 7 8 9 9 8 7 9 9 7 7 7 5 8 6 7 8 7 6 5 7 6 8 10 10 10 9 8 10 9 13 8 9 9 7 7 6 6 7 6 7 6 7 7 7 7 8 8 10 8 8 7 7 6 5
5 7 8 7 6 6 6 7 7 8 9 9 9 10 10 12 10 9 10 8 6 7 8 10 11 11 5 8 8 8 9 12 11 9 9 8 8 8 7 9 8 8 7 6 4 5 5 3 4 6 7 9 8 8 9 9 7 6 6 7 6 6 6
6 6 5 7 8 7 6 7 9 9 9 10 10 10 8 10 10 10 9 10 9 9 9 10 10 9 6 8 8 7 7 9 7 9 9 11 9 10 8 10 8 8 7 6 7 5 6 6 6 6 5 6 10 8 7 8 9 8 7 7 6 6 6
8 6 5 5 7 6 5 7 8 10 9 9 10 9 9 9 10 9 10 10 8 9 10 11 9 6 5 3 5 9 8 8 9 10 8 8 10 12 10 9 8 7 8 7 7 8 7 6 6 6 5 8 8 8 8 7 9 9 7 6 8 6 6
9 9 6 6 6 7 7 7 8 9 11 9 9 9 9 9 9 10 11 11 9 7 6 9 10 7 7 5 4 7 11 11 11 13 9 9 11 11 10 9 7 8 7 8 8 7 6 5 5 6 5 6 8 8 7 6 7 7 11 9 7 8 8
11 12 9 9 6 5 7 9 8 10 12 9 9 8 10 10 10 9 10 9 6 8 8 9 8 7 7 6 4 6 11 9 9 9 11 10 10 11 11 11 8 7 6 6 6 4 5 3 4 5 7 8 7 7 8 7 7 7 8 9 8 8 9
11 11 11 8 9 6 4 7 7 6 9 10 11 9 9 10 10 11 10 9 10 10 8 8 8 8 6 3 5 8 9 8 8 6 7 8 10 8 9 10 7 6 6 7 7 5 4 4 5 6 7 7 4 5 6 8 7 8 7 8 8 9 10
11 12 10 7 5 7 9 8 7 7 10 10 10 12 10 11 10 10 9 9 8 8 7 7 8 7 5 4 5 7 8 7 5 4 5 4 7 9 10 10 7 7 8 8 6 7 5 4 5 6 7 7 6 4 7 7 8 8 9 9 8 9 11
11 11 11 10 7 7 7 5 6 7 10 10 10 12 10 10 10 9 9 7 7 10 10 8 7 6 7 7 7 8 8 6 8 6 7 10 9 11 10 10 8 8 7 7 7 7 6 5 5 4 5 7 6 6 6 4 6 7 7 8 8 9 11
12 11 11 10 8 7 7 7 6 6 6 8 11 12 12 10 10 9 10 8 10 5 8 7 8 7 7 7 7 8 9 8 9 8 6 11 12 9 10 10 9 8 7 9 8 7 7 6 6 6 5 6 6 6 8 7 6 7 3 6 8 8 10
10 11 12 11 9 8 8 6 6 6 6 9 10 11 13 10 8 10 11 8 10 11 6 8 7 7 7 8 9 9 9 8 9 8 9 10 8 8 9 10 11 10 10 10 10 10 8 8 7 8 9 8 8 7 9 9 9 4 4 8 8 10 11
10 11 11 11 11 11 12 10 8 8 7 9 9 6 8 11 12 6 10 8 10 6 8 8 7 9 9 11 12 9 5 3 4 8 8 13 8 6 9 9 9 9 9 10 9 7 7 8 9 9 9 7 9 9 9 6 5 9 9 8 8 8 9
11 11 11 10 12 11 11 12 11 10 10 10 9 7 6 9 9 8 7 8 11 7 7 8 9 10 11 11 9 7 7 8 7 6 6 9 10 10 10 10 10 10 9 11 9 9 9 7 7 8 7 4 3 3 6 9 7 10 7 9 9 9 9
11 11 12 11 12 12 12 11 10 11 11 12 11 9 7 10 8 6 6 7 7 8 7 9 9 10 10 10 8 8 7 7 7 7 7 8 10 11 9 9 10 10 10 10 11 11 10 11 10 9 8 9 6 5 6 8 8 9 10 10 9 10 10
11 12 12 12 12 12 12 12 12 11 11 12 12 11 10 8 9 9 7 6 6 5 7 10 11 10 10 9 7 5 7 7 7 6 6 7 10 15 11 10 8 8 9 10 9 10 9 12 11 9 11 9 9 9 9 10 9 10 10 9 9 7 9
12 12 11 12 12 12 12 12 13 13 11 11 12 12 11 11 9 10 9 7 5 4 8 10 8 8 9 9 8 7 7 6 5 5 5 12 14 4 8 8 8 8 8 9 10 10 9 8 6 7 4 1 3 6 6 7 9 10 9 9 9 9 9
12 12 12 11 11 12 12 12 13 13 14 13 11 11 13 10 10 11 10 8 6 3 4 8 9 8 8 8 7 6 7 7 8 7 8 9 8 11 9 9 7 8 8 5 4 4 2 3 4 6 4 1 3 7 8 7 6 6 7 9 9 8 8
12 13 13 13 12 13 12 12 13 12 12 13 13 12 11 11 10 11 10 8 8 4 4 4 6 7 7 8 7 8 8 9 7 8 10 10 9 8 8 8 8 4 7 10 12 9 7 5 6 7 6 5 6 2 5 6 6 6 7 10 10 9 9
13 13 13 13 13 13 13 12 12 12 13 13 12 13 15 13 11 9 11 9 8 5 4 4 3 5 8 9 7 8 7 8 8 8 7 8 8 10 9 6 4 10 11 10 11 11 10 10 7 6 7 4 4 6 5 6 7 6 7 9 10 10 9
13 14 14 13 13 14 14 12 12 13 13 13 13 13 13 14 15 13 9 9 10 5 3 4 5 6 9 8 5 3 3 4 5 7 6 8 10 10 8 8 6 8 11 11 11 13 12 10 7 7 14 16 5 7 9 7 8 5 3 4 2 4 8
14 14 15 15 14 14 13 13 13 13 13 14 14 13 13 13 13 12 11 11 9 4 5 9 10 6 7 10 6 4 3 3 4 6 9 10 8 8 8 7 8 6 6 8 9 8 9 11 12 11 11 6 11 10 8 3 4 4 7 4 4 1 3
14 14 15 15 14 13 14 14 14 14 14 13 13 13 13 14 13 13 12 12 11 10 4 13 13 11 10 9 4 3 4 4 5 9 11 13 13 11 10 8 6 5 6 12 11 10 9 8 7 7 6 8 13 10 6 6 7 2 5 6 4 3 4
14 14 14 14 14 15 14 14 14 13 12 13 13 13 13 14 14 14 14 13 11 7 7 15 17 15 12 11 9 5 6 6 6 7 11 11 9 6 5 7 9 7 6 9 10 9 9 10 9 7 6 6 6 9 7 3 3 4 4 3 4 4 4
13 14 14 14 14 14 14 14 14 12 11 12 13 13 13 13 13 13 14 13 11 10 9 18 18 17 12 10 8 4 5 7 6 5 10 9 6 4 6 4 2 4 6 7 8 10 10 9 10 8 8 5 6 8 6 4 3 3 2 3 0 2 1
13 13 14 14 14 14 14 14 13 12 12 12 11 11 12 12 13 14 14 13 12 11 10 18 19 17 13 7 3 3 5 5 8 5 7 9 7 7 5 4 5 5 5 6 5 8 6 8 9 9 9 10 9 9 8 5 4 7 8 7 6 7 5
13 14 14 14 14 14 14 14 13 12 12 11 12 13 12 12 12 14 15 14 14 11 11 17 20 18 15 9 5 2 2 3 4 2 4 12 3 10 9 7 4 6 8 3 9 8 4 6 8 10 11 11 10 9 7 4 9 16 17 19 17 11 8
13 13 13 13 14 13 13 12 12 11 11 11 11 12 11 11 12 12 13 14 15 13 12 15 21 20 19 14 5 3 1 1 4 6 8 4 7 7 11 15 12 3 2 7 6 5 1 3 5 9 11 12 12 11 8 7 7 9 15 15 13 14 15
12 12 13 13 13 13 13 12 12 11 10 10 10 10 10 11 11 11 12 13 19 16 13 14 21 22 22 19 8 3 5 4 6 4 4 7 8 8 9 14 17 13 10 9 12 10 8 4 5 8 9 11 11 11 8 8 8 9 8 8 8 10 12
12 12 12 12 11 11 11 11 13 12 11 11 11 10 10 11 12 12 12 13 12 15 15 14 18 23 22 22 15 7 7 7 6 5 6 8 8 8 9 9 12 16 14 15 14 13 11 7 5 9 9 9 11 11 9 7 6 8 10 10 9 9 10
12 12 12 11 10 10 11 11 11 12 11 11 11 10 11 11 12 12 12 13 12 11 13 16 16 24 23 22 22 12 7 9 6 7 7 8 7 6 7 8 7 13 13 16 15 16 15 16 11 4 7 8 9 11 11 10 10 11 10 9 9 9 8
11 10 11 12 13 12 12 11 11 11 10 11 12 12 12 12 11 11 11 12 13 14 15 18 16 21 25 23 21 20 10 8 7 7 9 7 6 7 7 6 7 9 13 16 17 17 18 17 15 10 12 15 14 12 9 10 9 8 7 7 8 8 7
11 10 11 12 13 13 12 12 12 12 12 12 12 13 13 12 12 12 11 11 11 11 13 12 18 18 22 23 22 21 20 13 13 9 8 8 6 6 6 7 7 11 15 16 17 17 16 17 14 10 14 14 15 13 8 6 6 6 6 7 8 8 6
13 12 12 11 11 12 13 13 12 11 12 12 12 12 11 11 11 12 13 12 13 13 12 11 14 19 16 18 20 21 20 20 17 10 8 7 6 6 7 8 10 15 14 16 18 19 18 15 11 15 15 15 14 9 7 8 8 8 9 8 8 8 8
Wind_Direction
282 296 294 282 279 268 252 241 225 215 212 224 232 238 233 232 237 236 232 224 232 233 228 228 235 238 223 224 199 191 183 186 182 185 197 199 192 209 203 223 229 236 215 201 213 184 186 166 185 183 170 169 183 173 187 204 200 171 202 178 171 175 235
287 293 296 278 262 250 253 243 227 217 211 213 223 231 236 241 239 240 243 236 233 238 235 223 240 241 228 213 203 196 185 187 192 179 184 209 210 218 198 211 219 221 216 213 213 205 205 177 184 179 164 167 178 180 181 205 187 162 189 194 180 170 191
291 293 288 291 269 247 246 235 228 222 212 218 219 224 217 220 218 224 234 236 236 241 246 241 239 239 226 224 213 202 198 193 183 191 185 195 213 234 226 202 211 215 222 212 198 208 217 205 189 180 167 168 186 185 181 185 191 173 173 196 181 196 155
281 273 276 272 247 247 239 223 224 227 220 215 208 207 211 206 207 212 214 227 225 219 238 241 235 232 222 220 214 207 201 199 194 190 186 191 214 219 232 217 210 210 211 205 192 205 204 193 181 178 172 172 181 164 198 171 181 194 185 179 190 182 165
273 270 268 268 252 243 245 223 219 227 226 223 215 202 196 204 206 209 213 211 209 224 218 243 248 243 232 219 221 208 200 205 206 196 186 185 211 216 213 217 216 211 212 217 200 202 208 194 190 177 181 177 171 170 171 171 199 186 191 170 190 182 163
291 281 279 272 280 252 245 238 225 234 232 228 225 219 202 201 204 205 206 203 194 210 210 227 236 233 207 217 209 218 203 204 205 194 193 202 216 220 227 213 210 206 208 218 212 202 203 181 198 190 184 174 169 170 173 161 190 188 189 181 181 165 181
296 277 265 279 265 252 253 247 245 240 238 233 231 227 217 203 205 207 201 201 196 197 208 223 233 233 210 204 209 215 222 219 202 196 205 205 213 218 218 216 209 208 205 209 200 205 197 181 192 197 187 181 158 173 170 173 181 184 179 186 175 177 174
306 293 293 291 281 273 288 281 279 262 245 243 237 236 228 217 209 208 208 204 198 198 202 214 219 225 223 234 186 212 214 232 212 209 203 199 219 210 220 217 204 206 203 207 206 200 205 187 195 185 199 179 169 167 180 182 174 193 178 186 171 180 176
310 303 287 256 274 281 282 287 281 288 275 262 253 251 248 241 231 220 211 206 199 198 192 214 218 214 224 228 195 207 214 219 207 205 200 202 219 220 220 213 206 202 206 206 211 207 212 194 197 191 192 192 182 175 154 191 183 182 170 177 178 184 163
317 309 305 293 294 305 318 310 295 279 282 279 268 261 259 253 248 241 227 206 200 220 197 204 214 218 219 212 210 212 222 214 213 206 216 212 207 205 206 205 201 204 201 205 210 207 204 185 219 198 203 210 192 191 175 189 178 187 189 186 175 175 170
322 314 316 310 301 308 270 258 284 293 279 279 278 268 263 256 248 242 239 226 210 205 194 191 209 220 222 204 206 228 232 223 222 217 218 212 218 214 207 200 199 203 204 207 195 197 179 211 216 207 207 217 216 188 186 194 191 177 184 185 184 169 175
325 323 321 332 340 311 308 301 273 287 287 280 270 268 257 255 253 251 240 243 215 202 204 193 197 203 207 204 198 239 236 231 225 220 231 252 237 211 202 198 185 202 200 205 202 194 191 206 221 214 206 225 199 180 183 202 186 176 170 187 179 188 168
332 334 342 336 327 319 303 291 293 278 274 278 278 275 266 258 261 256 246 232 223 219 196 194 186 181 185 187 203 219 225 224 225 214 209 218 216 213 200 197 196 205 205 205 206 211 194 199 230 231 238 217 202 191 190 194 190 188 161 197 160 179 166
338 334 335 342 328 316 315 310 294 275 298 278 274 264 255 256 250 250 251 224 241 223 222 181 177 179 186 192 197 213 224 218 228 229 218 224 209 201 198 197 196 199 207 210 207 202 202 201 218 231 233 254 213 195 196 184 177 200 155 178 157 180 168
343 339 338 334 342 321 313 297 287 278 271 281 265 280 297 269 250 242 246 244 236 199 177 201 183 180 197 204 205 212 214 206 222 232 227 241 203 202 204 205 193 192 208 206 204 202 198 196 211 228 210 217 216 217 203 205 171 164 188 180 171 174 167
348 347 341 338 336 336 326 314 301 289 268 255 270 265 265 295 290 315 296 265 241 224 195 186 200 190 200 203 210 206 188 171 226 238 231 229 224 204 202 208 205 210 198 202 204 195 193 208 210 223 224 203 212 209 202 221 171 168 192 169 176 179 164
352 349 346 340 337 330 324 317 313 304 301 298 293 288 276 275 277 266 256 271 282 251 218 202 200 206 202 205 199 187 184 201 212 227 229 254 234 219 204 200 201 201 192 202 208 207 200 209 221 221 224 253 200 203 214 198 190 153 178 166 187 175 177
355 350 346 341 336 330 323 318 311 311 309 308 302 297 297 280 278 267 264 275 265 262 244 222 205 208 208 208 202 196 196 199 203 211 224 228 229 224 211 203 204 207 207 204 206 211 202 205 216 208 216 202 192 198 235 195 174 171 173 184 178 180 163
357 353 348 344 341 334 330 323 318 309 307 305 303 299 293 288 279 276 275 276 288 287 261 256 219 215 212 204 201 199 208 202 199 219 227 231 244 220 212 205 196 190 201 208 211 215 208 210 213 208 199 204 200 185 197 199 191 182 175 175 186 170 163
357 358 352 344 344 340 335 329 322 316 309 306 306 304 303 297 287 281 274 264 269 269 277 253 239 222 203 208 204 196 204 205 202 208 222 232 233 242 224 195 199 199 203 213 215 211 212 215 219 242 29 283 271 184 181 186 215 185 182 167 183 170 169
348 3 356 350 347 343 337 335 334 332 324 313 306 302 302 298 299 289 282 279 273 259 269 285 268 238 213 207 198 191 197 204 211 206 229 232 230 227 219 205 204 202 202 234 324 290 41 81 61 62 104 95 189 262 208 182 204 187 178 171 183 177 177
355 3 355 353 353 348 345 342 340 340 339 337 330 315 303 302 301 291 282 280 277 273 273 274 272 269 241 211 207 203 193 205 210 207 216 229 225 217 214 212 211 115 111 139 126 132 153 169 146 158 151 170 195 226 218 180 191 184 198 183 183 182 182
1 3 359 356 355 351 350 350 347 346 347 344 341 341 335 317 294 279 282 282 277 274 286 265 266 288 260 261 229 222 203 209 219 229 212 227 222 214 207 200 139 159 155 121 131 146 152 184 181 154 146 114 244 186 222 197 194 187 202 190 190 185 189
1 4 1 360 356 356 355 353 352 351 350 349 347 348 346 347 346 328 313 290 285 288 278 281 310 278 234 249 275 238 234 217 203 243 254 237 217 211 208 189 177 193 165 149 145 158 171 175 180 160 149 172 170 237 195 208 203 191 45 286 111 214 187
7 5 3 3 1 360 359 358 359 355 354 355 353 351 355 350 347 348 345 335 306 321 320 348 329 323 256 227 216 233 231 254 243 220 218 237 236 211 203 180 204 190 191 170 151 151 158 169 170 171 174 156 76 48 32 149 230 121 158 180 162 154 354
10 9 7 5 5 4 2 4 2 359 357 358 355 357 358 350 351 347 348 346 350 339 46 357 345 349 336 327 312 272 247 229 245 257 220 216 223 198 193 191 176 188 198 171 163 168 159 140 125 117 125 107 93 86 73 36 3 350 149 169 155 157 185
12 12 10 8 8 7 7 5 4 2 359 1 0 1 359 358 355 354 351 349 347 10 22 352 350 344 339 339 344 342 257 248 247 269 264 227 219 205 200 195 185 186 175 172 203 184 179 164 156 147 158 169 163 124 116 101 301 320 287 203 196 185 143
10 13 13 13 11 11 10 4 6 5 4 3 6 2 2 1 360 355 354 351 350 353 10 359 352 344 338 345 3 319 263 255 248 243 269 262 232 172 204 203 208 173 194 191 207 191 190 176 168 163 157 128 96 69 59 48 6 10 276 235 149 134 124
11 12 15 15 17 15 11 10 8 7 7 10 10 5 7 8 3 3 360 359 353 352 355 3 350 348 336 335 328 273 259 257 252 252 273 241 221 177 190 209 196 196 231 223 157 158 181 177 164 155 133 113 100 75 55 31 61 72 53 43 58 55 43
14 14 15 16 18 17 15 13 13 10 12 12 11 12 10 8 8 7 6 5 358 348 352 359 350 343 336 316 281 267 281 296 303 249 269 263 173 57 44 40 311 239 209 201 120 127 119 217 187 151 133 121 112 105 105 107 94 87 84 85 85 87 81
19 16 20 21 19 20 20 19 17 16 18 15 15 17 11 11 13 11 10 10 5 353 349 357 355 344 347 323 314 305 311 339 291 275 236 233 86 86 56 30 10 339 104 83 50 67 231 181 177 160 146 134 124 121 129 129 112 96 97 91 88 82 70
20 16 20 20 18 19 22 23 23 23 23 21 19 17 18 19 16 16 12 10 14 11 356 354 360 351 357 337 337 5 25 32 28 21 44 62 59 54 51 43 29 30 61 56 51 39 25 343 152 151 151 129 128 128 136 142 125 118 109 92 77 66 59
19 15 14 16 18 18 16 17 20 23 25 28 28 23 22 23 22 21 17 11 12 17 9 357 1 357 4 350 347 29 41 48 57 33 41 47 57 46 38 42 35 17 40 53 53 46 42 359 224 159 159 145 138 131 135 118 98 103 99 95 85 77 76
22 17 11 9 15 19 21 19 14 14 17 21 23 24 24 22 23 21 22 19 15 14 18 10 359 8 7 3 358 12 53 40 48 60 53 47 49 54 46 38 41 14 39 56 56 52 46 46 36 113 122 110 102 113 116 103 85 83 94 101 101 94 88
25 22 17 14 13 13 13 19 21 21 15 17 21 22 22 25 24 21 18 20 17 12 9 14 15 13 13 9 8 15 39 39 50 84 71 59 50 56 58 53 45 19 46 61 63 63 60 58 57 66 88 99 95 91 97 103 106 109 108 110 109 98 94
22 25 25 24 23 19 15 13 15 19 22 22 22 22 22 21 20 20 18 16 14 9 3 3 10 14 18 14 14 23 29 34 36 56 76 74 62 64 59 60 53 49 61 61 64 61 59 63 62 66 77 85 100 102 93 89 109 115 101 90 86 91 93
23 22 24 24 29 29 22 18 20 14 16 24 22 24 24 23 20 20 19 13 14 12 5 2 3 7 9 15 26 28 31 35 36 52 54 66 57 60 67 67 72 62 58 67 67 65 57 51 56 55 60 61 51 65 83 80 66 70 73 69 77 84 82